Estación Meteorológica Peña el Pijo (Robertgarden) [ 07/12/20 04:12:19 CEST ]

Fecha Hora Presion(HPa) Temp (°C) Humedad % Rocio (°C) Viento ( m/s) Direccion Lluvia 1Hora(mm) Lluvia 24H(mm) LLuvia Total(mm)
2020-Feb-26 01:09:10 1010.100 - - - - N     39.88
2020-Feb-26 02:10:25 1010.000 - - - - N     39.88
2020-Feb-26 03:11:45 1009.600 - - - - N     39.88
2020-Feb-26 04:09:19 1009.100 - - - - N     39.88
2020-Feb-26 05:09:31 1008.600 - - - - N     39.88
2020-Feb-26 06:09:00 1008.600 - - - - N     39.88
2020-Feb-26 07:08:52 1008.700 - - - - N     39.88
2020-Feb-26 08:08:39 1008.700 - - - - N     39.88
2020-Feb-26 09:08:57 1009.400 - - - - N     39.88
2020-Feb-26 10:09:09 1010.100 - - - - N     39.88
2020-Feb-26 11:09:16 1010.500 - - - - N     39.88
2020-Feb-26 12:09:02 1010.400 - - - - N     39.88
2020-Feb-26 13:09:25 1010.100 - - - - N     39.88
2020-Feb-26 14:09:19 1009.400 - - - - N     39.88
2020-Feb-26 15:09:31 1009.100 - - - - N     39.88
2020-Feb-26 16:09:18 1009.100 - - - - N     39.88
2020-Feb-26 17:09:18 1009.100 - - - - N     39.88
2020-Feb-26 18:08:51 1009.100 - - - - N     39.88
2020-Feb-26 19:08:50 1009.600 - - - - N     39.88
2020-Feb-26 20:08:56 1010.400 - - - - N     39.88
2020-Feb-26 21:09:09 1010.800 - - - - N     39.88
2020-Feb-26 22:09:15 1011.100 - - - - N     39.88
2020-Feb-26 23:09:19 1011.400 - - - - N     39.88

Temperatura Máxima:    Temperatura Mínima:
Presión Máxima:1011.400 Hpa    Presión Mínima:1008.600 Hpa


Volver